Lapse_Rate
6.8 6.9 6.7 6.7 6.7 6.7 6.7 6.6 6.3 6.2 6.3 6.2 6.1 5.9 5.8 5.8 5.5 5.2 5.1 5.0 5.0 4.8 4.8 4.6 4.6 4.6 4.7 4.9 5.1 5.2 5.2 5.1 4.8 5.2 5.6 5.6 5.4 5.3 5.5 5.5 5.4 5.6 5.5
6.6 6.9 6.7 6.5 6.7 6.6 6.5 6.5 6.4 6.3 6.1 6.1 6.0 5.9 6.0 5.8 5.6 5.3 5.0 5.0 5.0 5.0 5.1 4.7 4.7 4.7 4.5 4.5 4.7 5.0 5.1 5.3 5.0 5.0 5.6 5.6 5.7 5.6 5.2 5.2 5.4 5.5 5.5
6.7 6.7 6.6 6.6 6.5 6.5 6.5 6.4 6.2 6.0 6.0 6.0 5.8 5.6 5.5 5.4 5.5 5.5 5.3 5.0 5.0 5.0 5.0 4.8 4.9 5.0 5.0 4.8 4.7 5.0 5.3 5.4 5.2 4.8 5.1 5.7 5.7 5.8 5.4 5.2 5.4 5.4 5.3
6.4 6.3 6.3 6.3 6.3 6.4 6.3 6.3 6.2 6.0 5.7 5.5 5.3 5.1 4.9 5.0 5.3 5.5 5.5 5.4 5.1 4.8 4.8 4.8 4.5 4.6 5.1 4.9 4.6 4.5 5.2 5.6 5.8 5.5 5.1 5.7 5.8 5.8 5.7 5.7 5.4 5.5 5.4
6.2 6.2 6.2 6.1 6.1 6.0 5.9 5.8 5.6 5.5 5.4 5.2 5.1 5.1 5.1 5.5 5.7 5.7 5.7 5.7 5.4 4.9 4.4 4.3 4.3 4.4 4.9 5.0 4.7 4.1 4.5 5.3 5.5 5.6 5.5 5.7 6.2 6.2 5.9 5.9 5.5 5.5 5.6
5.9 5.9 5.8 5.8 5.8 5.6 5.6 5.5 5.4 5.4 5.5 5.4 5.4 5.5 5.5 5.8 5.8 5.7 5.8 5.5 5.3 5.0 4.6 4.3 4.3 4.3 4.5 4.6 4.4 3.8 4.2 4.9 5.1 5.0 5.3 5.7 6.3 6.3 6.3 6.0 5.4 5.4 5.4
5.7 5.8 5.8 5.7 5.7 5.8 5.9 5.9 5.9 5.9 5.9 6.0 6.1 6.2 6.1 5.9 6.0 6.0 5.9 5.5 5.2 5.0 4.6 4.5 4.2 4.2 4.1 4.3 4.3 3.8 3.7 4.3 5.0 5.1 4.6 5.7 6.4 6.7 6.5 6.2 5.8 5.7 5.6
6.1 6.0 5.8 6.0 6.1 6.4 6.5 6.4 6.4 6.4 6.4 6.5 6.5 6.4 6.3 6.0 5.7 5.5 5.4 5.3 5.3 4.9 4.6 4.5 4.4 3.9 3.8 4.1 4.0 3.9 3.8 4.1 4.8 5.2 5.4 6.1 6.3 6.5 6.5 6.0 5.9 5.8 5.8
6.3 6.2 6.5 6.5 6.6 6.6 6.5 6.5 6.5 6.5 6.4 6.2 5.9 5.6 5.4 5.4 5.3 5.3 5.3 5.2 5.3 5.1 4.7 4.5 4.6 4.4 4.3 4.1 3.8 3.5 4.1 4.6 5.1 5.3 5.7 6.0 6.2 6.3 6.1 5.9 6.0 6.0 6.1
6.4 6.4 6.4 6.4 6.5 6.4 6.3 6.1 5.9 5.4 5.1 5.1 5.0 5.2 5.4 5.3 5.4 5.0 5.3 5.3 5.3 5.6 5.4 4.7 4.9 4.7 4.5 4.4 4.1 4.1 4.7 5.0 5.2 5.3 5.3 5.4 6.0 6.4 5.9 5.9 6.1 6.0 5.7
6.1 6.1 6.2 6.2 6.0 5.8 5.6 5.2 5.1 5.1 5.1 5.2 5.2 5.0 5.0 4.9 4.9 5.1 5.2 5.3 5.5 5.7 5.7 5.5 5.1 5.0 4.8 4.9 5.0 5.1 5.2 5.4 5.6 5.3 5.0 5.1 6.0 6.4 6.0 6.2 6.1 5.5 5.7
6.2 6.1 5.9 5.6 5.3 5.4 5.5 5.3 5.1 5.0 5.0 5.0 5.0 4.9 4.9 4.7 5.0 5.1 5.2 5.5 5.7 5.5 5.5 5.4 5.1 4.6 5.2 5.3 5.1 5.3 5.5 5.5 5.7 5.7 5.6 5.2 6.1 6.5 6.4 6.2 5.7 5.7 5.2
5.8 5.7 5.5 5.4 5.4 5.4 5.2 5.0 4.9 4.7 4.6 4.6 4.8 4.7 4.5 4.6 5.0 4.9 5.0 5.3 5.4 5.5 5.4 5.2 5.3 5.3 5.3 5.1 5.4 5.6 5.8 5.8 5.7 5.7 5.7 5.8 6.3 6.4 6.2 5.8 5.5 6.2 6.5
5.6 5.5 5.4 5.5 5.2 5.0 4.8 4.7 4.6 4.5 4.4 4.6 4.6 4.6 4.5 4.0 4.1 3.9 4.3 4.9 5.1 5.4 5.2 5.1 5.2 5.5 5.4 5.6 5.4 5.7 5.7 5.4 5.4 5.3 5.4 6.0 6.3 6.4 5.9 5.5 5.9 6.3 6.2
5.3 5.2 5.3 5.2 5.0 4.6 4.5 4.2 4.2 4.3 4.0 4.1 4.3 4.5 4.5 4.4 4.3 4.2 4.0 4.1 4.6 4.8 5.1 5.0 5.3 5.9 5.8 5.0 5.3 5.6 5.5 5.3 5.2 5.8 6.5 6.4 6.3 6.6 6.7 6.7 6.4 6.9 6.5
5.2 5.3 5.3 5.1 4.7 4.3 4.2 4.2 4.3 4.3 4.4 4.5 4.7 4.9 5.0 5.0 4.5 4.1 3.9 4.2 4.6 4.9 5.6 5.7 6.0 5.6 5.3 4.8 4.7 4.6 5.2 5.0 5.0 5.4 5.5 6.3 6.8 7.0 7.0 6.7 6.3 6.0 6.0
5.3 5.1 5.2 4.8 4.2 4.2 4.3 4.4 4.7 4.9 4.9 5.3 5.3 5.2 5.3 4.9 4.6 4.4 4.2 4.4 4.7 5.7 6.1 6.0 5.7 5.1 5.2 5.3 5.4 5.5 5.1 5.3 5.8 5.9 6.3 6.5 6.6 6.4 6.2 6.2 6.1 6.2 6.5
5.1 5.1 4.8 4.5 4.1 4.0 4.0 4.3 4.7 4.9 5.1 5.4 5.3 5.3 5.2 4.7 4.7 4.6 4.4 4.6 4.7 5.4 5.7 5.5 5.4 5.5 5.3 5.7 6.0 6.2 6.0 6.1 6.2 6.1 6.0 6.1 6.1 6.0 6.0 6.2 6.4 6.5 6.5
5.1 4.8 4.7 4.7 4.2 4.2 4.2 4.3 4.5 4.7 4.9 5.1 5.1 5.0 4.8 4.7 4.7 4.5 4.5 4.7 4.6 5.0 5.6 5.4 5.5 5.8 6.2 6.1 6.3 6.0 6.0 5.8 5.7 5.8 5.9 5.9 6.0 6.2 6.2 6.3 6.4 6.2 6.5
5.0 4.9 4.6 4.8 4.6 4.2 4.2 4.4 4.5 4.5 4.7 4.8 4.7 4.8 4.6 4.7 4.6 4.6 5.0 5.1 4.9 5.4 5.8 5.3 5.8 6.0 6.2 6.2 5.9 5.7 5.7 5.9 6.0 6.0 6.1 6.1 6.1 6.0 6.1 6.2 6.4 6.7 6.8
4.8 4.8 4.9 4.7 4.1 4.1 4.2 4.6 4.6 4.6 4.5 4.5 4.5 4.6 4.7 4.8 4.8 4.9 5.1 5.1 5.5 5.6 5.6 5.9 6.0 6.1 6.2 6.1 5.7 5.7 5.7 6.0 6.0 6.0 6.1 6.0 6.0 6.2 6.4 6.5 6.6 6.8 6.8
4.9 4.7 4.7 4.5 4.3 4.6 4.8 5.0 4.9 4.5 4.2 4.2 4.3 4.4 4.4 5.1 5.5 5.3 4.7 5.3 5.5 6.0 5.7 6.2 5.9 6.2 6.2 6.1 6.1 6.0 6.0 6.0 6.1 6.2 6.1 6.1 6.2 6.3 6.4 6.6 6.7 6.8 6.9
4.6 4.5 4.7 4.7 4.7 4.9 5.2 5.1 4.8 4.3 4.1 4.3 4.1 4.4 4.4 5.2 5.5 5.2 5.6 5.4 5.5 5.6 5.8 6.2 5.9 6.1 6.2 6.0 6.0 6.0 6.0 6.0 6.0 6.1 6.2 6.5 6.5 6.4 6.4 6.6 6.7 6.8 6.8
4.7 4.4 4.8 4.8 4.5 4.8 5.2 4.9 4.6 4.0 3.6 3.6 3.3 3.2 3.7 4.9 5.1 5.5 5.5 5.5 6.1 5.9 6.1 6.1 6.1 6.3 6.1 5.9 6.1 6.4 6.4 6.2 6.1 6.4 6.6 6.5 6.6 6.6 6.6 6.6 6.7 6.9 6.9
4.4 4.6 5.0 5.0 4.6 4.5 5.0 5.0 4.8 4.2 3.8 3.4 3.2 3.9 4.8 5.1 5.5 5.6 5.9 6.0 6.1 5.9 6.0 6.0 6.0 6.1 5.9 6.0 6.3 6.2 6.3 6.5 6.6 6.5 6.4 6.3 6.4 6.5 6.6 6.9 6.9 6.9 6.8
5.1 5.3 4.9 4.8 4.7 4.6 5.2 5.1 5.1 4.9 4.6 4.7 5.0 5.4 5.4 5.2 5.5 5.7 5.8 5.8 6.1 5.9 5.7 5.9 6.0 6.1 6.1 6.1 6.2 6.5 6.7 6.8 6.6 6.6 6.4 6.5 6.6 6.7 7.1 7.2 7.0 6.8 6.4
Wind_Speed
5 5 6 7 8 8 9 9 10 10 11 12 12 12 13 13 13 12 12 11 11 11 10 10 11 9 8 8 8 9 10 9 10 9 14 15 15 15 13 10 10 7 9
5 4 3 3 4 5 7 8 9 11 12 12 13 14 15 15 15 15 15 14 15 15 14 12 13 8 11 10 9 11 11 13 11 14 15 13 13 14 13 11 8 6 6
7 7 7 7 8 7 7 7 7 8 9 11 13 14 16 17 18 18 17 18 17 16 15 15 15 13 11 10 11 11 11 11 11 10 11 13 12 10 9 10 8 7 6
8 8 8 8 8 8 9 10 10 10 10 11 12 13 15 16 17 18 19 19 19 18 17 16 17 16 14 13 11 12 12 13 12 10 10 12 11 11 8 8 8 7 5
8 9 9 10 11 11 12 13 13 13 13 14 15 16 16 15 13 17 18 20 19 19 18 19 17 18 18 15 11 11 12 13 14 14 9 10 11 9 10 8 9 10 6
10 12 12 13 14 14 15 15 15 16 16 16 17 18 18 14 15 14 18 17 19 19 18 19 19 18 18 16 16 18 16 15 16 15 14 12 15 10 11 11 12 11 12
13 14 15 15 16 16 16 16 17 17 16 17 17 18 19 19 14 14 14 17 18 18 19 18 18 16 16 17 16 18 18 21 23 19 18 16 12 12 10 10 13 12 11
16 16 16 17 17 17 17 17 16 15 15 15 17 17 17 16 14 14 16 18 18 18 17 18 19 15 15 15 17 18 19 19 18 15 20 19 17 14 13 11 9 7 2
17 17 17 16 17 17 17 17 15 15 15 15 15 14 16 14 14 13 12 15 16 16 15 12 11 12 13 12 18 20 23 21 17 20 19 14 11 12 11 4 4 4 4
17 17 17 16 16 17 16 16 15 13 13 12 12 14 17 16 18 14 13 12 16 13 13 14 13 17 18 19 21 21 21 18 16 17 14 16 15 16 17 14 7 7 7
17 17 16 16 16 17 15 14 13 14 12 12 14 12 15 16 17 14 12 13 10 9 8 10 13 15 17 18 18 15 19 18 21 17 13 10 11 10 7 7 8 7 3
16 17 17 16 12 11 13 13 12 11 12 12 11 12 10 13 15 15 17 18 18 12 13 11 12 11 10 13 13 21 27 25 15 15 13 12 11 8 9 6 5 7 3
17 17 14 14 12 12 12 12 10 10 9 9 10 10 10 10 9 13 16 18 16 12 11 11 10 10 14 13 18 17 18 8 13 13 13 12 11 10 7 6 7 7 5
15 14 12 12 12 12 9 9 9 9 9 9 8 8 9 8 7 8 7 7 11 9 11 10 9 8 11 11 9 6 4 5 10 14 14 13 10 12 10 10 8 6 5
12 12 12 10 11 11 10 9 9 10 9 9 8 7 7 7 7 10 12 9 7 5 6 7 5 3 5 4 4 1 4 8 9 8 9 10 10 10 8 6 5 5 4
12 10 9 10 9 9 9 10 14 17 20 18 17 13 10 12 15 16 17 13 11 10 5 4 3 5 4 6 4 3 1 6 11 10 9 9 9 8 8 6 6 6 6
12 12 10 11 9 9 9 8 9 7 12 15 15 14 16 16 13 13 12 11 6 3 4 2 4 4 3 3 6 6 4 7 10 9 9 7 7 7 6 7 7 5 4
12 20 10 9 9 9 9 8 6 6 6 5 7 9 12 14 11 9 7 8 2 4 2 2 5 4 3 4 4 4 7 6 7 8 8 8 7 6 6 6 5 4 4
10 9 8 8 9 10 8 6 3 4 5 4 6 4 5 4 4 6 6 3 3 4 5 5 6 5 3 4 5 4 8 8 7 7 7 6 6 5 5 6 5 2 2
10 16 12 8 7 7 5 4 3 3 3 4 4 2 2 4 4 3 3 1 1 1 3 6 6 5 3 4 5 4 6 8 8 7 7 7 5 5 5 6 5 5 4
7 8 10 7 5 6 5 5 4 3 4 3 4 3 6 3 2 3 3 3 2 2 4 5 7 3 5 7 8 8 9 8 7 7 6 5 4 4 4 4 4 3 3
7 7 7 7 6 5 5 4 4 5 6 5 5 3 2 2 3 3 4 3 1 2 3 5 5 2 6 7 8 7 7 8 7 6 6 5 4 4 5 4 4 3 2
7 8 7 7 7 7 4 4 3 4 5 4 5 4 1 2 2 0 2 2 2 3 4 5 4 5 4 4 3 4 7 8 7 6 6 6 5 4 2 2 3 2 1
8 8 8 8 8 7 8 6 4 5 3 3 4 4 5 4 5 4 2 3 3 4 4 2 2 5 6 4 4 5 5 7 7 7 8 6 5 3 1 2 2 4 3
9 8 8 8 9 8 9 9 8 8 7 6 5 5 5 4 6 5 1 2 2 3 4 2 3 7 8 9 7 8 8 5 9 6 5 5 3 1 3 4 3 4 5
9 9 8 8 8 8 8 8 8 8 7 7 8 7 7 7 7 6 4 4 2 3 5 5 6 10 11 9 10 9 6 6 6 6 2 2 3 4 4 4 5 4 2
Wind_Direction
309 288 277 274 260 251 250 255 256 263 259 257 255 252 245 235 228 225 230 234 231 235 238 242 248 249 256 262 264 265 262 250 258 263 268 270 268 267 266 246 256 262 248
43 28 22 341 297 276 274 276 266 253 253 251 253 252 251 248 244 238 238 234 231 233 234 236 245 244 244 254 257 257 258 264 260 263 267 270 262 267 266 267 260 273 271
7 360 1 360 351 342 328 311 296 286 279 272 265 261 258 254 249 242 241 241 240 237 235 234 239 245 245 255 259 268 266 264 265 266 265 265 271 270 259 254 263 253 262
352 344 337 333 322 313 306 301 297 294 287 283 277 271 266 265 262 257 250 245 242 240 239 236 236 242 244 248 257 270 275 271 261 261 262 262 257 263 270 268 258 232 235
335 325 318 312 306 303 298 295 291 286 281 277 276 272 269 263 259 255 251 250 247 244 240 238 237 238 239 242 253 265 273 271 269 260 258 264 260 252 247 259 276 276 220
312 308 308 304 302 297 292 289 286 282 280 279 275 273 272 266 263 238 247 257 254 250 244 238 239 230 234 236 242 244 256 266 264 265 260 250 256 262 263 262 272 274 258
303 301 300 298 294 290 288 285 281 280 281 278 277 275 273 272 260 251 246 261 259 254 249 245 238 237 227 243 236 234 241 245 246 258 257 249 244 254 270 258 250 246 245
297 297 296 294 292 289 286 282 282 280 279 280 279 277 277 277 269 251 250 263 266 261 250 247 242 237 243 247 252 260 261 260 250 242 248 251 253 258 258 267 245 227 234
297 297 297 296 293 291 287 286 283 283 281 278 277 280 275 273 271 260 264 272 267 262 250 238 239 241 240 233 255 264 267 265 248 231 235 240 234 238 233 184 209 178 202
299 299 297 293 289 287 285 283 283 281 273 274 273 270 270 271 270 259 260 272 266 261 260 261 240 250 256 245 252 258 259 250 250 247 229 228 224 233 195 212 204 199 204
301 297 293 290 289 289 285 283 282 281 276 269 266 271 274 275 277 264 246 267 266 265 259 262 261 238 232 244 248 258 259 257 247 232 231 223 210 206 182 196 184 193 170
299 296 295 295 294 288 282 278 274 271 267 265 270 274 272 275 270 269 260 253 260 257 260 268 269 248 259 266 265 268 253 241 234 231 219 192 180 171 177 177 181 203 195
302 299 295 290 283 274 275 277 276 267 260 263 266 271 282 288 285 267 253 252 250 250 252 257 279 277 276 280 274 262 247 222 213 187 168 158 166 161 144 127 219 192 180
294 290 287 284 286 280 274 270 266 265 260 259 260 264 270 277 278 282 291 281 250 234 243 251 252 267 276 281 288 293 57 64 112 130 140 146 142 158 160 181 181 167 180
290 291 290 287 286 287 279 273 266 263 258 262 260 262 273 279 287 308 310 295 279 259 259 241 249 302 287 235 255 202 86 95 95 102 120 132 135 151 144 150 151 154 177
297 297 295 295 294 287 283 284 265 255 265 261 260 253 264 261 279 288 297 283 266 245 219 228 242 286 261 200 167 183 126 153 138 140 131 131 143 148 148 154 157 170 189
295 299 296 294 288 286 285 279 285 284 253 259 255 246 245 249 265 277 282 289 312 196 245 202 263 294 284 195 156 165 165 145 136 135 135 132 135 127 140 157 175 169 167
294 293 290 289 286 285 283 279 269 275 291 289 264 256 233 239 246 239 254 298 2 2 5 24 310 301 236 185 160 156 138 132 135 135 133 131 129 140 151 158 157 154 152
302 296 292 290 286 284 304 301 267 280 284 298 292 265 202 199 174 238 269 306 15 13 344 6 336 289 215 186 164 151 156 157 147 134 127 134 139 135 135 153 143 111 138
300 293 291 289 297 333 332 333 308 294 300 290 295 20 148 168 198 209 244 268 311 34 13 335 331 292 215 168 153 182 150 145 141 137 139 142 141 148 154 163 173 172 165
306 307 306 311 353 345 342 358 339 312 293 357 3 12 12 312 236 243 247 206 267 353 346 350 318 242 173 169 158 161 148 133 132 138 138 132 141 161 154 154 174 173 155
323 326 335 339 341 349 353 357 6 16 27 4 353 7 0 335 301 246 221 179 172 298 314 301 289 242 150 155 153 145 140 139 139 134 126 128 132 120 124 149 174 196 174
346 353 353 355 355 341 14 16 37 44 16 343 339 4 349 285 14 230 176 157 231 236 265 273 271 193 162 153 147 178 154 144 132 135 129 126 119 119 127 198 223 222 213
3 6 5 5 4 4 6 14 50 58 4 355 352 1 26 24 48 84 111 217 244 280 290 298 250 192 177 179 159 142 128 126 130 123 111 100 99 125 206 253 280 287 308
13 10 12 9 10 9 6 9 11 17 16 13 9 13 11 17 45 65 139 232 269 308 360 17 150 167 170 162 146 129 97 105 111 106 105 90 70 306 279 269 261 279 284
19 18 16 13 13 12 11 7 10 9 5 1 4 8 6 17 36 30 8 17 49 36 42 77 110 122 134 129 121 107 105 102 100 56 79 64 2 330 310 302 304 299 326